Simultaneous Nadir Overpasses (SNOs) Predictions

Prediction of SNOs between AURA and NPP Satellite Orbit:

Table of predicted SNOs for the next 14.0 days since TLE Epoch: 2/10/2012
Index Date (AURA) Time (AURA) AURA Lat,Lon Date (NPP) Time (NPP) NPP Lat,Lon Distance(km) Time Diff (sec)
1 02/10/2012 04:30:35 79.98, 12.81 02/10/2012 04:31:17 79.98, 12.82 0.19 42
2 02/12/2012 19:57:41 -79.87, -39.87 02/12/2012 19:57:32 -79.87, -39.86 0.39 9
3 02/12/2012 20:47:01 80.08, 129.51 02/12/2012 20:48:09 80.08, 129.60 1.85 68
4 02/15/2012 11:24:47 79.73, -92.65 02/15/2012 11:23:47 79.73, -92.64 0.36 60
5 02/15/2012 12:14:09 -79.92, 76.41 02/15/2012 12:14:27 -79.91, 76.33 1.75 18
6 02/18/2012 03:41:14 79.81, 23.77 02/18/2012 03:40:41 79.81, 23.82 1.01 33
7 02/18/2012 04:30:36 -79.99,-167.13 02/18/2012 04:31:21 -79.98,-167.18 1.01 45
8 02/20/2012 19:57:41 79.86, 140.09 02/20/2012 19:57:36 79.85, 140.00 1.87 5
9 02/20/2012 20:47:01 -80.11, -50.20 02/20/2012 20:48:13 -80.11, -50.07 2.51 72
10 02/23/2012 11:24:44 -79.80, 87.87 02/23/2012 11:23:49 -79.81, 87.99 2.45 55




NCC Satellite Simultaneous Nadir Overpasses (SNOs) Prediction Service
